Probability
0 0 0 0 0 0 0 0 0 0 0 0 0 0 0 0 0 0 0 0 0 0 0 3 3 3 3 3 3 3 3 3 3 6 3 3 3 3 3 3 3 3 6 3
0 0 0 0 0 0 0 0 0 0 0 0 0 0 0 0 0 0 0 0 0 0 0 3 3 0 3 0 3 3 3 3 3 3 3 3 3 3 3 3 3 3 3 3
0 0 0 0 0 0 0 0 0 0 0 0 0 0 0 0 0 0 0 0 0 0 0 3 0 0 3 0 0 3 3 3 3 3 3 3 3 3 3 0 3 3 3 3
0 0 0 0 0 0 0 0 0 0 0 0 0 0 0 0 0 0 0 0 0 0 0 0 0 0 0 0 0 0 0 0 3 3 3 3 3 3 3 0 0 3 3 3
0 0 0 0 0 0 0 0 0 0 0 0 0 0 0 0 0 0 0 0 0 0 0 0 0 0 0 0 0 0 0 0 0 3 3 3 3 3 3 0 0 3 3 3
0 0 0 0 0 0 0 0 0 0 0 0 0 0 0 0 0 0 0 0 0 0 0 0 0 0 0 0 0 0 0 0 0 3 3 3 0 0 0 0 0 3 3 3
0 0 0 0 0 0 0 0 0 0 0 0 0 0 0 0 0 0 0 0 0 0 0 0 0 0 0 0 0 0 0 0 0 0 3 3 0 0 0 0 0 0 3 3
0 0 0 0 0 0 0 0 0 0 0 0 0 0 0 0 0 0 0 0 0 0 0 0 0 0 0 0 0 0 0 0 0 0 0 0 0 0 0 0 0 0 0 0
0 0 0 0 0 0 0 0 0 0 0 0 0 0 0 0 0 0 0 0 0 0 0 0 0 0 0 0 0 0 0 0 0 0 0 0 0 0 0 0 0 0 0 0
0 0 0 0 0 0 0 0 0 0 0 0 0 0 0 0 0 0 0 0 0 0 0 0 0 0 0 0 0 0 0 0 0 0 0 0 0 0 0 0 0 0 0 0
0 0 0 0 0 0 0 0 0 0 0 0 0 0 0 0 0 0 0 0 0 0 0 0 0 0 0 0 0 0 0 0 0 0 0 0 0 0 0 0 0 0 0 0
0 0 0 0 0 0 0 0 0 0 0 0 0 0 0 0 0 0 0 0 0 0 0 0 0 0 0 0 0 0 0 0 0 0 0 0 0 0 0 0 0 0 0 0
0 0 0 0 0 0 0 0 0 0 0 0 0 0 0 0 0 0 0 0 0 0 0 0 0 0 0 0 0 0 0 0 0 0 0 0 0 0 0 0 0 0 0 0
0 0 0 0 0 0 0 0 0 0 0 0 0 0 0 0 0 0 0 0 0 0 0 0 0 0 0 0 0 0 0 0 0 0 0 0 0 0 0 0 0 0 0 0
0 0 0 0 0 0 0 0 0 0 0 0 0 0 0 0 0 0 0 0 0 0 0 0 0 0 0 0 0 0 0 0 0 0 0 0 0 0 0 0 0 0 0 0
0 0 0 0 0 0 0 0 0 0 0 0 0 0 0 0 0 0 0 0 0 0 0 0 0 0 0 0 0 0 0 0 0 0 0 0 0 0 0 0 0 0 0 0
0 0 0 0 0 0 0 0 0 0 0 0 0 0 0 0 0 0 0 0 0 0 0 0 0 0 0 0 0 0 0 0 0 0 0 0 0 0 0 0 0 0 0 0
0 0 0 0 0 0 0 0 0 0 0 0 0 0 0 0 0 0 0 0 0 0 0 0 0 0 0 0 0 0 0 0 0 0 0 0 0 0 0 0 0 0 0 0
0 0 0 0 0 0 0 0 0 0 0 0 0 0 0 0 0 0 0 0 0 0 0 0 0 0 0 0 0 0 0 0 0 0 0 0 0 0 0 0 0 0 0 0
0 0 0 0 0 0 0 0 0 0 0 0 0 0 0 0 0 0 0 0 0 0 0 0 0 0 0 0 0 0 0 0 0 0 0 0 0 0 0 0 0 0 0 0
0 0 0 0 0 0 0 0 0 0 0 0 0 0 0 0 0 0 0 0 0 0 0 0 0 0 0 0 0 0 0 0 0 0 0 0 0 0 0 0 0 0 0 0
0 0 0 0 0 0 0 0 0 0 0 0 0 0 0 0 0 0 0 0 0 0 0 0 0 0 0 0 0 0 0 0 0 0 0 0 0 0 0 0 0 0 0 0
0 0 0 0 0 0 0 0 0 0 0 0 0 0 0 0 0 0 0 0 0 0 0 0 0 0 0 0 0 0 0 0 0 0 0 0 0 0 0 0 0 0 0 0
0 0 0 0 0 0 0 0 0 0 0 0 0 0 0 0 0 0 0 0 0 0 0 0 0 0 0 0 0 0 0 0 0 0 0 0 0 0 0 0 0 0 0 0
0 0 0 0 0 0 0 0 0 0 0 0 0 0 0 0 0 0 0 0 0 0 0 0 0 0 0 0 0 0 0 0 0 0 0 0 0 0 0 0 0 0 0 0
0 0 0 0 0 0 0 0 0 0 0 0 0 0 0 0 0 0 0 0 0 0 0 0 0 0 0 0 0 0 0 0 0 0 0 0 0 0 0 0 0 0 0 0
Height
5705 5702 5697 5692 5688 5684 5680 5678 5677 5677 5676 5675 5675 5676 5676 5676 5675 5676 5677 5678 5679 5680 5682 5684 5686 5688 5691 5694 5697 5700 5702 5705 5708 5712 5715 5719 5723 5727 5732 5736 5740 5744 5749 5754
5700 5695 5690 5685 5681 5677 5674 5671 5670 5669 5667 5666 5666 5666 5666 5665 5665 5665 5666 5667 5667 5668 5670 5671 5673 5675 5678 5680 5684 5687 5690 5693 5696 5700 5703 5707 5711 5716 5720 5724 5728 5732 5737 5742
5692 5688 5683 5679 5674 5671 5668 5664 5662 5660 5658 5657 5656 5656 5657 5656 5655 5655 5655 5655 5655 5656 5657 5658 5660 5662 5665 5668 5671 5674 5677 5680 5683 5687 5691 5695 5698 5703 5707 5712 5716 5720 5724 5729
5686 5682 5677 5673 5669 5665 5662 5658 5654 5651 5649 5648 5647 5645 5648 5646 5645 5644 5644 5644 5644 5644 5645 5646 5647 5650 5652 5655 5658 5661 5664 5667 5670 5674 5678 5682 5686 5691 5696 5700 5704 5708 5712 5717
5681 5676 5671 5667 5663 5658 5654 5651 5648 5644 5641 5639 5638 5635 5638 5636 5635 5635 5634 5632 5632 5632 5633 5633 5635 5637 5640 5642 5645 5648 5651 5653 5657 5661 5665 5670 5674 5679 5683 5687 5692 5696 5700 5704
5675 5670 5665 5661 5656 5652 5648 5645 5641 5637 5634 5632 5631 5628 5627 5626 5626 5624 5623 5622 5621 5621 5621 5622 5623 5625 5628 5630 5633 5636 5638 5641 5645 5649 5652 5657 5661 5666 5670 5674 5679 5683 5687 5691
5669 5664 5659 5654 5650 5647 5642 5638 5634 5630 5626 5625 5623 5620 5620 5618 5616 5614 5613 5612 5611 5611 5611 5611 5612 5614 5616 5617 5620 5623 5626 5629 5633 5636 5639 5644 5648 5652 5657 5661 5666 5670 5674 5679
5661 5658 5653 5647 5644 5640 5636 5632 5628 5624 5620 5618 5616 5613 5613 5610 5607 5605 5604 5603 5602 5601 5601 5600 5601 5601 5603 5605 5607 5610 5614 5617 5620 5623 5626 5631 5635 5639 5643 5648 5652 5656 5661 5666
5654 5651 5646 5642 5637 5634 5630 5626 5622 5617 5612 5610 5608 5606 5605 5602 5599 5596 5595 5593 5593 5592 5591 5590 5589 5589 5590 5592 5595 5598 5602 5605 5608 5610 5613 5616 5621 5625 5629 5634 5639 5643 5648 5652
5647 5643 5640 5636 5631 5627 5624 5619 5615 5610 5605 5602 5601 5599 5597 5594 5591 5588 5586 5584 5583 5582 5581 5580 5580 5579 5579 5581 5584 5587 5589 5592 5596 5598 5601 5604 5608 5612 5616 5621 5626 5630 5635 5639
5640 5636 5633 5629 5625 5620 5617 5613 5608 5603 5600 5596 5592 5595 5589 5586 5583 5581 5578 5576 5574 5573 5572 5571 5570 5570 5570 5571 5573 5576 5578 5581 5584 5586 5589 5593 5596 5600 5604 5608 5613 5617 5622 5626
5632 5628 5624 5622 5618 5613 5609 5606 5601 5598 5594 5589 5585 5588 5582 5578 5575 5572 5570 5567 5566 5564 5563 5562 5561 5561 5561 5561 5563 5565 5567 5569 5572 5575 5578 5581 5585 5589 5592 5596 5600 5604 5609 5614
5625 5621 5617 5613 5612 5607 5603 5599 5594 5590 5586 5582 5578 5580 5575 5570 5567 5564 5562 5559 5558 5556 5554 5553 5552 5552 5552 5552 5554 5555 5556 5558 5560 5563 5566 5570 5573 5577 5581 5584 5588 5592 5596 5601
5617 5613 5610 5607 5602 5597 5595 5592 5587 5582 5578 5575 5572 5570 5567 5563 5559 5556 5554 5551 5549 5547 5546 5544 5543 5543 5543 5543 5544 5544 5546 5547 5549 5552 5555 5558 5562 5565 5569 5573 5576 5580 5584 5588
5608 5605 5602 5599 5594 5590 5587 5584 5580 5575 5571 5567 5565 5562 5559 5555 5551 5548 5546 5543 5541 5539 5537 5535 5534 5534 5534 5534 5534 5534 5535 5537 5539 5541 5544 5547 5551 5554 5557 5561 5565 5568 5572 5575
5600 5597 5593 5591 5587 5582 5579 5577 5572 5568 5564 5560 5557 5555 5551 5547 5544 5541 5538 5535 5532 5530 5528 5526 5525 5525 5524 5524 5524 5524 5525 5526 5528 5531 5533 5537 5540 5543 5547 5550 5554 5557 5560 5563
5592 5588 5584 5582 5578 5574 5572 5570 5565 5561 5558 5554 5550 5548 5543 5540 5536 5533 5530 5527 5524 5522 5520 5518 5517 5516 5515 5515 5514 5515 5515 5517 5519 5521 5523 5526 5529 5532 5536 5539 5542 5545 5548 5551
5584 5580 5575 5572 5570 5566 5568 5562 5558 5554 5551 5546 5542 5539 5535 5532 5529 5525 5522 5519 5516 5513 5511 5510 5508 5508 5507 5506 5505 5505 5506 5507 5508 5510 5513 5515 5518 5521 5524 5526 5529 5532 5535 5539
5576 5572 5567 5564 5560 5557 5558 5554 5549 5545 5543 5539 5535 5531 5528 5524 5521 5519 5514 5510 5508 5505 5503 5501 5500 5498 5498 5497 5496 5496 5496 5497 5499 5500 5502 5504 5506 5509 5511 5514 5517 5520 5523 5527
5568 5564 5560 5556 5551 5549 5550 5545 5540 5538 5535 5532 5527 5523 5520 5516 5514 5512 5507 5503 5500 5497 5495 5493 5491 5490 5489 5488 5487 5487 5487 5488 5489 5490 5491 5493 5494 5497 5499 5502 5504 5507 5510 5514
5559 5555 5552 5548 5543 5541 5540 5536 5532 5530 5528 5523 5519 5515 5511 5508 5505 5502 5498 5495 5492 5489 5487 5485 5483 5481 5480 5479 5478 5478 5478 5478 5479 5480 5481 5482 5483 5485 5487 5489 5492 5495 5498 5501
5551 5547 5544 5540 5536 5536 5531 5527 5524 5521 5517 5514 5510 5507 5503 5500 5496 5493 5490 5487 5484 5481 5479 5476 5474 5473 5471 5470 5469 5468 5468 5468 5469 5469 5470 5471 5472 5474 5475 5477 5480 5483 5486 5489
5543 5540 5535 5533 5531 5526 5521 5518 5515 5512 5509 5505 5502 5499 5495 5492 5489 5486 5483 5479 5477 5474 5471 5468 5466 5464 5463 5461 5460 5459 5458 5458 5458 5459 5460 5461 5462 5463 5464 5466 5468 5471 5473 5476
5534 5530 5526 5524 5521 5517 5513 5509 5507 5504 5501 5497 5494 5491 5487 5484 5480 5477 5474 5472 5469 5466 5463 5460 5457 5456 5454 5452 5450 5449 5448 5448 5448 5449 5449 5450 5451 5452 5453 5454 5456 5458 5461 5464
5525 5521 5517 5515 5512 5508 5505 5501 5498 5495 5492 5489 5486 5483 5479 5476 5472 5469 5466 5463 5461 5458 5455 5452 5449 5447 5445 5443 5441 5440 5439 5439 5439 5439 5439 5439 5440 5441 5442 5444 5446 5447 5450 5452
5517 5512 5509 5506 5503 5499 5497 5493 5490 5487 5484 5481 5478 5475 5471 5468 5465 5461 5458 5455 5452 5449 5446 5443 5440 5438 5436 5434 5433 5431 5430 5429 5429 5429 5429 5430 5430 5431 5432 5434 5436 5437 5439 5441
Wind_Speed
32 32 32 31 32 31 31 31 30 30 31 33 33 34 34 35 36 38 38 39 40 41 42 43 44 44 45 46 46 46 47 47 47 47 48 47 47 47 48 47 48 49 49 48
33 32 32 31 31 30 30 30 30 30 32 33 34 34 34 34 36 37 38 38 40 41 43 43 44 44 44 45 45 46 47 48 48 49 48 49 49 49 49 49 49 50 51 50
33 32 31 31 31 31 29 29 30 31 32 33 34 34 33 34 35 36 37 38 40 41 42 43 44 44 44 44 45 46 47 48 48 48 49 49 49 49 49 49 49 50 51 52
32 31 31 31 30 30 30 30 31 31 32 32 33 35 32 33 35 37 37 37 39 40 42 43 43 45 44 44 45 45 46 49 49 49 49 50 50 50 50 50 50 50 51 52
32 32 32 31 30 31 31 30 30 31 32 33 32 34 33 35 35 36 36 36 37 38 40 41 42 44 44 44 44 45 46 47 48 49 50 51 52 50 50 51 51 52 52 52
32 32 32 32 31 31 31 31 31 31 32 32 32 33 34 34 34 34 35 36 37 37 38 39 40 42 43 44 44 45 45 47 48 49 50 51 52 52 51 51 52 52 53 53
33 33 33 33 32 32 31 31 32 32 33 33 32 34 34 33 34 35 36 36 37 37 38 38 39 41 42 43 44 45 45 46 48 48 49 50 53 52 52 52 52 52 53 53
35 35 34 33 32 32 32 32 32 33 35 34 32 33 33 33 33 34 35 36 36 36 36 38 39 40 42 43 44 44 45 46 47 48 50 50 52 53 52 52 52 52 52 52
36 35 33 32 33 33 33 32 32 33 35 35 34 34 34 33 34 35 34 34 34 34 35 37 38 39 40 42 42 43 45 46 47 48 49 50 50 52 52 51 51 52 51 52
36 35 33 32 33 33 33 33 33 33 35 37 36 35 34 34 34 34 34 33 34 35 34 35 37 38 38 40 41 42 44 45 46 47 47 49 49 49 50 51 50 51 51 52
36 36 35 34 33 33 33 34 34 34 35 37 38 35 35 34 34 34 34 33 33 34 34 33 34 35 36 38 40 41 42 44 45 46 46 48 48 48 49 49 49 51 51 51
36 36 35 35 35 35 34 34 34 34 35 36 38 36 35 35 35 34 33 33 34 34 34 34 34 35 36 37 39 41 42 43 44 46 46 47 48 48 49 49 49 50 50 51
37 37 37 36 37 36 35 35 35 35 36 36 37 35 35 35 35 34 33 33 34 35 35 35 35 34 34 35 37 39 41 43 44 45 46 47 47 47 48 49 49 48 48 50
38 37 37 37 37 37 35 34 34 35 35 35 35 35 33 34 34 34 34 34 34 36 36 36 36 34 34 35 36 38 40 42 43 44 45 46 47 47 47 48 48 48 48 50
38 38 38 37 36 36 34 33 34 34 35 35 35 34 33 34 34 34 34 34 35 35 36 36 35 35 35 36 36 37 39 41 42 43 43 44 46 46 47 47 47 47 49 50
38 39 38 37 36 36 35 34 34 34 34 34 34 32 32 34 35 35 34 35 35 35 35 36 35 35 35 35 36 37 38 39 40 41 43 44 45 45 46 46 46 47 47 49
38 38 38 37 36 36 35 34 34 34 33 33 33 32 31 32 33 33 34 35 34 34 34 34 34 34 34 35 35 36 37 39 40 41 42 43 44 44 45 46 46 47 47 48
38 37 37 37 37 36 35 34 34 33 32 32 32 31 31 32 32 32 33 34 34 33 33 34 33 33 34 34 35 35 36 38 40 40 41 42 43 44 45 46 47 47 47 48
37 37 37 38 38 37 34 34 34 33 32 32 32 32 32 32 32 32 33 32 31 31 32 33 33 33 34 34 35 35 35 36 37 38 40 41 41 43 44 45 46 46 47 47
37 37 37 37 37 36 35 34 34 34 33 32 32 33 33 32 32 31 32 31 30 30 31 32 33 34 34 33 33 34 35 35 37 37 38 40 41 42 43 44 44 45 47 48
36 36 36 36 36 36 35 35 35 34 34 33 32 32 33 32 32 32 32 31 31 31 30 31 31 32 32 31 32 33 34 36 37 37 38 38 39 40 41 43 44 44 46 47
36 36 36 35 36 36 35 34 34 34 34 33 33 33 33 32 32 32 32 31 30 30 30 30 30 30 30 31 31 32 34 34 35 36 37 38 39 40 40 42 43 45 45 46
35 35 35 35 35 35 34 34 34 34 34 34 34 34 33 33 32 32 32 31 30 30 30 30 29 29 30 31 31 32 33 33 34 35 35 36 37 38 40 41 43 44 45 46
35 34 34 34 33 34 34 34 34 34 34 34 34 34 34 33 33 33 32 31 31 30 30 30 29 30 30 31 31 31 32 33 33 33 34 35 35 36 37 38 39 41 43 44
34 34 34 33 33 34 34 34 34 34 33 32 32 33 33 33 32 32 31 30 30 30 30 30 29 29 30 30 31 31 31 31 32 32 33 33 34 35 35 36 37 38 40 41
34 34 34 33 33 34 33 33 33 32 32 32 32 32 32 31 31 31 30 29 30 30 30 29 29 28 28 29 29 29 30 31 31 31 31 31 31 31 32 32 33 34 36 37
Wind_Direction
311 309 307 306 304 300 296 293 287 282 280 278 276 274 272 270 269 268 265 264 263 259 257 257 254 252 251 250 249 248 248 248 246 245 245 245 243 243 243 242 241 241 240 241
312 311 310 307 305 302 299 296 291 287 283 280 278 277 274 271 269 269 268 266 265 262 259 257 255 252 251 250 249 249 249 248 248 246 245 244 243 243 244 243 242 241 241 241
314 313 311 308 305 303 300 297 294 293 287 283 280 277 275 274 272 270 270 268 266 264 261 258 255 252 251 250 249 249 249 248 248 247 244 243 242 242 243 243 242 242 242 242
315 314 312 309 306 304 301 298 295 294 290 287 283 280 276 275 274 273 272 271 268 265 262 259 256 253 251 250 249 249 248 248 248 246 244 243 243 243 243 243 242 242 243 242
316 315 312 309 307 305 302 299 296 294 291 289 285 283 281 278 276 275 273 272 270 267 263 260 257 254 251 250 250 249 248 248 248 247 245 243 243 243 243 243 243 243 243 243
314 314 312 310 308 305 304 301 299 297 294 293 289 286 287 284 281 278 275 273 272 269 265 262 258 255 252 251 250 250 248 248 248 248 247 244 243 244 244 244 244 243 243 243
313 313 312 310 308 307 306 304 302 301 299 297 295 289 289 288 284 281 278 275 274 272 267 263 260 257 253 252 252 250 248 248 248 249 248 247 244 244 245 245 245 245 244 243
312 313 313 311 309 307 306 305 303 301 300 299 297 294 293 290 287 284 279 276 275 274 270 266 263 259 255 253 252 250 248 248 249 249 248 247 245 243 244 246 246 245 244 243
312 311 311 309 308 306 305 303 303 302 300 300 299 297 295 292 289 285 282 278 276 274 272 269 264 260 256 253 252 250 248 249 250 250 248 247 246 245 244 245 245 244 242 242
310 310 309 308 307 307 305 303 302 301 302 301 300 300 297 294 291 287 284 281 277 274 273 270 265 262 258 253 251 250 249 250 251 250 249 247 246 244 242 243 242 242 241 242
309 308 308 307 306 307 306 303 301 300 300 302 302 301 298 296 294 290 285 282 279 276 274 271 267 264 261 256 253 252 252 250 250 249 247 246 246 245 244 243 242 240 240 242
307 307 307 306 306 306 305 304 302 299 299 299 299 301 298 296 295 292 286 282 280 279 277 274 270 267 264 260 255 255 254 251 251 250 249 248 247 246 245 243 242 240 241 241
306 306 307 306 306 306 305 304 303 300 297 297 298 301 298 295 293 291 287 283 282 280 277 274 272 269 266 263 259 257 255 252 251 250 249 248 248 247 245 244 243 243 244 243
304 304 304 306 306 305 305 304 302 300 299 298 298 299 298 295 293 290 288 285 283 282 279 276 273 270 270 267 262 258 256 254 252 251 250 249 249 248 247 246 244 245 245 244
303 302 303 304 303 302 302 301 301 301 301 300 300 298 296 294 293 292 289 286 284 282 280 276 272 272 271 269 264 261 257 255 253 252 251 250 249 249 248 248 247 248 248 245
302 302 302 302 302 301 300 300 301 301 302 302 301 301 298 294 292 292 291 288 285 284 281 276 273 273 271 270 267 261 257 255 254 252 251 251 249 249 249 249 250 250 250 248
303 302 302 302 301 300 300 302 302 302 303 303 301 301 299 296 295 293 291 290 289 285 282 278 276 276 273 270 266 263 260 257 255 253 252 251 250 250 250 250 250 251 251 248
302 301 301 302 302 301 303 302 301 302 303 302 302 301 299 298 297 296 295 293 291 287 282 279 277 276 273 270 266 266 263 259 257 255 253 252 252 252 252 252 251 251 250 248
301 300 301 302 302 302 302 302 302 301 301 301 301 301 301 299 299 298 296 294 292 289 285 281 279 277 276 273 267 265 263 261 258 256 255 255 254 253 253 253 252 250 249 248
300 300 300 301 301 303 304 302 301 302 302 302 301 301 301 301 300 298 296 295 293 292 289 285 281 279 277 274 270 266 263 262 260 259 257 257 256 255 254 253 251 250 248 248
300 299 299 299 299 300 302 302 302 302 304 304 303 302 301 301 301 300 298 296 295 292 290 287 284 281 279 277 272 269 265 263 262 261 260 258 257 256 255 253 250 248 249 248
299 299 299 299 299 301 301 300 301 302 303 303 302 303 302 301 299 299 298 297 296 295 293 290 287 283 281 279 277 273 268 265 264 263 262 261 260 258 256 254 252 250 249 248
298 298 299 299 299 299 299 299 299 300 301 301 302 302 302 301 299 298 297 295 295 296 296 293 289 285 283 281 279 275 270 268 266 265 263 262 261 259 258 256 254 253 251 249
299 297 297 299 299 297 297 297 298 299 300 300 299 300 301 301 300 299 297 296 296 297 297 295 292 287 284 281 279 277 272 269 268 266 264 263 262 260 258 256 255 254 252 249
300 298 297 296 295 295 295 296 297 298 299 299 299 300 301 302 301 300 298 296 296 296 296 295 293 291 287 283 280 278 275 272 270 268 266 264 262 259 257 256 255 253 252 251
298 297 296 296 296 296 297 297 297 298 299 299 300 300 301 302 302 301 299 297 297 297 297 295 292 291 289 286 283 281 278 275 273 270 267 264 261 258 257 256 255 254 252 250